CW4114 Weather Reports


Display with metric or nautical units.
time (UTC)temp
F
wind
direction
speed
MPH
gust
MPH
rain 1hr
in
rain 24hr
in
rain mn
in
humidity
%
barometer
mb
20260905104747 56 286 1.0 2.0 0.00 0.03 0.00 98 1015.5
20260905104247 57 272 0.0 2.0 0.00 0.03 0.00 98 1015.4
20260905103748 57 274 1.0 2.0 0.00 0.03 0.00 98 1015.5
20260905103246 57 274 0.0 1.0 0.00 0.03 0.00 98 1015.4
20260905102746 57 274 0.0 2.0 0.00 0.03 0.00 98 1015.4
20260905102246 57 275 1.0 2.0 0.00 0.03 0.00 98 1015.4
20260905101747 57 274 1.0 2.0 0.00 0.03 0.00 98 1015.3
20260905101245 57 272 1.0 2.0 0.00 0.03 0.00 98 1015.4
20260905100746 57 271 0.0 1.0 0.00 0.03 0.00 98 1015.4
20260905100243 58 271 0.0 2.0 0.00 0.03 0.00 98 1015.5
20260905095739 58 271 0.0 2.0 0.00 0.03 0.00 98 1015.4
20260905095239 58 272 1.0 2.0 0.00 0.03 0.00 98 1015.3
20260905094742 58 272 1.0 2.0 0.00 0.03 0.00 98 1015.3
20260905094239 58 271 1.0 3.0 0.00 0.03 0.00 98 1015.2
20260905093740 58 274 2.0 3.0 0.00 0.03 0.00 98 1015.2
20260905093238 58 282 2.0 3.0 0.00 0.03 0.00 98 1015.1
20260905092738 58 276 1.0 3.0 0.00 0.03 0.00 98 1015.2
20260905092236 58 283 2.0 3.0 0.00 0.03 0.00 98 1015.1
20260905091735 58 269 2.0 3.0 0.00 0.03 0.00 98 1015.2
20260905091234 58 278 1.0 2.0 0.00 0.03 0.00 98 1015.2
20260905091000 58 278 1.0 3.0 0.00 0.03 0.00 98 1014.9
20260905090234 58 278 1.0 3.0 0.00 0.03 0.00 98 1014.9
20260905090006 58 279 1.0 2.0 0.00 0.03 0.00 98 1015.1
20260905085233 58 268 1.0 2.0 0.00 0.03 0.00 98 1015.1
20260905084736 58 282 0.0 2.0 0.00 0.03 0.00 98 1014.9
20260905084233 58 282 1.0 2.0 0.00 0.03 0.00 98 1015.1
20260905083732 58 282 1.0 2.0 0.00 0.03 0.00 98 1015.1
20260905083233 58 282 1.0 2.0 0.00 0.03 0.00 97 1015.1
20260905082732 58 282 0.0 2.0 0.00 0.03 0.00 97 1015.1
20260905082233 58 282 1.0 2.0 0.00 0.03 0.00 97 1014.9
20260905082004 58 282 1.0 2.0 0.00 0.03 0.00 97 1014.9
20260905081232 58 282 1.0 2.0 0.00 0.03 0.00 97 1014.9
20260905080733 58 282 0.0 0.0 0.00 0.03 0.00 98 1014.9
20260905080236 58 282 0.0 0.0 0.00 0.03 0.00 97 1014.9
20260905075732 58 282 0.0 1.0 0.00 0.03 0.00 97 1014.9
20260905075233 58 282 0.0 2.0 0.00 0.03 0.00 97 1014.8
20260905074732 59 282 1.0 2.0 0.00 0.03 0.00 97 1014.8
20260905074234 59 279 1.0 2.0 0.00 0.03 0.00 97 1014.8
20260905074007 59 279 0.0 2.0 0.00 0.03 0.00 98 1014.8
20260905073233 59 279 2.0 2.0 0.00 0.03 0.00 97 1014.8
20260905072732 59 281 2.0 2.0 0.00 0.03 0.00 97 1014.8
20260905072233 59 251 1.0 2.0 0.00 0.03 0.00 97 1014.8
20260905071732 59 251 1.0 2.0 0.00 0.03 0.00 97 1014.8
20260905071459 59 251 1.0 2.0 0.00 0.03 0.00 97 1014.7
20260905070731 59 251 0.0 1.0 0.00 0.03 0.00 97 1014.7
20260905070233 59 251 0.0 2.0 0.00 0.03 0.00 97 1014.6
20260905065731 60 251 1.0 2.0 0.00 0.03 0.00 97 1014.7
20260905065231 60 251 1.0 2.0 0.00 0.03 0.00 97 1014.7
20260905064732 60 251 1.0 2.0 0.00 0.03 0.00 97 1014.7
20260905064233 60 274 0.0 1.0 0.00 0.03 0.00 97 1014.6
20260905063731 60 276 1.0 1.0 0.00 0.03 0.00 97 1014.6
20260905063231 60 276 1.0 2.0 0.00 0.03 0.00 97 1014.7
20260905062730 60 276 1.0 2.0 0.00 0.03 0.00 97 1014.7
20260905062231 61 276 0.0 1.0 0.00 0.03 0.00 97 1014.6
20260905061730 61 276 0.0 2.0 0.00 0.03 0.00 97 1014.7
20260905061230 61 276 1.0 2.0 0.00 0.03 0.00 97 1014.7
20260905060730 61 275 1.0 2.0 0.00 0.03 0.00 97 1014.7
20260905060232 61 269 1.0 2.0 0.00 0.03 0.00 97 1014.8
20260905055729 61 269 1.0 2.0 0.00 0.03 0.00 97 1014.8
20260905054729 61 89 1.0 2.0 0.00 0.03 0.00 97 1014.8
20260905054229 62 90 1.0 2.0 0.00 0.03 0.00 97 1014.8
20260905053725 62 85 1.0 2.0 0.00 0.03 0.00 97 1014.8
20260905053223 62 85 1.0 2.0 0.00 0.03 0.00 97 1014.8
20260905052723 62 87 0.0 0.0 0.00 0.03 0.00 97 1014.8
20260905052224 62 86 0.0 2.0 0.00 0.03 0.00 97 1014.9
20260905051719 63 85 1.0 2.0 0.00 0.03 0.00 97 1014.8
20260905051220 63 86 0.0 0.0 0.00 0.03 0.00 97 1014.8
20260905050719 63 89 0.0 0.0 0.00 0.03 0.00 97 1014.7
20260905050222 63 89 0.0 0.0 0.00 0.03 0.00 97 1014.8
20260905045720 63 89 0.0 0.0 0.00 0.03 0.00 97 1014.9
20260905045216 63 89 0.0 0.0 0.00 0.03 0.00 97 1014.9
20260905044714 64 89 0.0 0.0 0.00 0.03 0.00 97 1014.8
20260905044214 64 89 0.0 0.0 0.00 0.03 0.00 97 1014.8
20260905043714 64 89 0.0 0.0 0.00 0.03 0.00 97 1014.8
20260905043215 64 89 0.0 1.0 0.00 0.03 0.00 97 1014.8
20260905042713 64 89 0.0 1.0 0.00 0.03 0.00 97 1014.8
20260905042446 64 89 0.0 1.0 0.00 0.03 0.00 97 1014.7
20260905041712 64 89 0.0 2.0 0.00 0.03 0.00 97 1014.8
20260905041214 64 89 0.0 2.0 0.00 0.03 0.00 97 1014.9
20260905040711 64 87 0.0 2.0 0.00 0.03 0.00 97 1014.9
20260905040213 64 90 1.0 2.0 0.00 0.03 0.00 97 1014.9
20260905035707 64 89 0.0 2.0 0.00 0.03 0.03 97 1014.9
20260905035439 64 138 0.0 0.0 0.00 0.03 0.03 97 1014.9
20260905034706 64 138 0.0 0.0 0.00 0.03 0.03 97 1014.9
20260905034206 64 138 0.0 0.0 0.00 0.03 0.03 97 1015.1
20260905033707 64 138 0.0 0.0 0.00 0.03 0.03 96 1015.2
20260905033206 63 138 0.0 0.0 0.00 0.03 0.03 96 1015.2
20260905032706 64 140 0.0 0.0 0.00 0.03 0.03 96 1015.1
20260905031705 64 142 0.0 0.0 0.00 0.03 0.03 96 1015.3
20260905031205 64 142 0.0 0.0 0.00 0.03 0.03 96 1015.2
20260905030704 64 142 0.0 0.0 0.00 0.03 0.03 96 1015.2
20260905030205 64 142 0.0 0.0 0.00 0.03 0.03 96 1015.3
20260905025707 64 142 0.0 0.0 0.00 0.03 0.03 96 1015.3
20260905025206 65 142 0.0 0.0 0.00 0.03 0.03 96 1015.2
20260905024705 65 142 0.0 0.0 0.00 0.03 0.03 96 1015.4
20260905024206 65 144 0.0 0.0 0.00 0.03 0.03 96 1015.3
20260905023705 65 144 0.0 1.0 0.00 0.03 0.03 96 1015.2
20260905023207 65 144 0.0 2.0 0.00 0.03 0.03 96 1015.2
20260905022934 65 141 0.0 2.0 0.00 0.03 0.03 96 1015.1
20260905022205 65 137 0.0 2.0 0.00 0.03 0.03 96 1015.2
20260905021935 65 140 0.0 3.0 0.00 0.03 0.03 96 1015.2
20260905021205 66 145 1.0 3.0 0.00 0.03 0.03 96 1015.1
20260905020204 66 100 2.0 4.0 0.00 0.03 0.03 95 1015.3
20260905015706 66 100 0.0 3.0 0.00 0.03 0.03 95 1015.2
20260905015207 66 62 2.0 4.0 0.00 0.03 0.03 95 1015.1
20260905014706 66 96 0.0 4.0 0.00 0.03 0.03 95 1015.1
20260905014204 66 75 2.0 4.0 0.00 0.03 0.03 95 1015.2
20260905013702 66 100 1.0 4.0 0.00 0.03 0.03 95 1015.2
20260905013204 66 62 2.0 4.0 0.00 0.03 0.03 95 1015.2
20260905012704 66 69 2.0 3.0 0.00 0.03 0.03 95 1015.2
20260905012203 66 83 0.0 2.0 0.00 0.03 0.03 95 1015.1
20260905011929 66 106 1.0 2.0 0.00 0.03 0.03 95 1015.1
20260905011434 66 71 1.0 2.0 0.00 0.03 0.03 94 1015.1
20260905010703 66 76 2.0 3.0 0.00 0.03 0.03 94 1014.9
20260905010206 66 72 0.0 3.0 0.00 0.03 0.03 94 1014.8
20260905005658 66 65 0.0 3.0 0.00 0.03 0.03 94 1014.8
20260905005200 66 62 1.0 3.0 0.00 0.03 0.03 93 1014.7
20260905004654 66 97 0.0 0.0 0.00 0.03 0.03 93 1014.7
20260905004156 67 97 0.0 0.0 0.00 0.03 0.03 93 1014.6
20260905003153 67 97 0.0 0.0 0.00 0.03 0.03 93 1014.6
20260905002653 67 97 0.0 0.0 0.00 0.03 0.03 93 1014.5
20260905002152 67 100 0.0 0.0 0.00 0.03 0.03 92 1014.4
20260905001651 67 99 0.0 1.0 0.00 0.03 0.03 92 1014.5
20260905001152 67 99 0.0 2.0 0.00 0.03 0.03 92 1014.4
20260905000650 67 82 0.0 2.0 0.00 0.03 0.03 92 1014.4
20260905000153 68 78 0.0 2.0 0.00 0.03 0.03 92 1014.4
20260904235647 68 65 1.0 2.0 0.00 0.03 0.03 92 1014.4
20260904235147 68 80 1.0 2.0 0.00 0.03 0.03 91 1014.3
20260904234646 68 76 1.0 2.0 0.00 0.03 0.03 91 1014.3
20260904234146 68 89 1.0 2.0 0.00 0.03 0.03 91 1014.3
20260904233645 68 89 0.0 2.0 0.00 0.03 0.03 91 1014.4
20260904233146 68 90 0.0 2.0 0.00 0.03 0.03 91 1014.3
20260904232645 68 90 0.0 2.0 0.00 0.03 0.03 91 1014.3
20260904232146 68 87 1.0 2.0 0.00 0.03 0.03 91 1014.1
20260904231646 68 69 1.0 2.0 0.00 0.03 0.03 92 1014.2
20260904231146 68 75 0.0 1.0 0.00 0.03 0.03 92 1014.2
20260904230642 68 134 0.0 3.0 0.00 0.03 0.03 92 1014.2
20260904230146 68 117 1.0 4.0 0.00 0.03 0.03 92 1014.0
20260904225642 68 114 1.0 4.0 0.00 0.03 0.03 92 1014.0
20260904225141 68 90 2.0 4.0 0.00 0.03 0.03 92 1014.0
20260904224905 68 79 3.0 4.0 0.00 0.03 0.03 92 1014.0
20260904224139 68 66 2.0 4.0 0.00 0.03 0.03 92 1014.1
20260904223639 68 117 2.0 4.0 0.00 0.03 0.03 92 1014.0
20260904223140 68 68 2.0 5.0 0.00 0.03 0.03 92 1014.0
20260904222638 68 68 3.0 5.0 0.00 0.03 0.03 92 1013.9
20260904222139 68 76 2.0 4.0 0.00 0.03 0.03 92 1013.9
20260904221905 68 83 2.0 4.0 0.00 0.03 0.03 92 1013.9
20260904221142 68 82 2.0 4.0 0.00 0.03 0.03 92 1014.0
20260904220636 68 113 2.0 5.0 0.00 0.03 0.03 92 1014.0
20260904220143 68 102 3.0 5.0 0.00 0.03 0.03 91 1014.1
20260904215558 68 103 2.0 5.0 0.00 0.03 0.03 91 1014.0
20260904215058 69 51 3.0 5.0 0.00 0.03 0.03 91 1014.0
20260904214559 69 80 2.0 4.0 0.00 0.03 0.03 90 1014.0
20260904214057 69 51 2.0 4.0 0.00 0.03 0.03 89 1014.0
20260904213558 69 97 2.0 6.0 0.00 0.03 0.03 89 1014.1
20260904213057 69 89 2.0 6.0 0.00 0.03 0.03 88 1013.9
20260904212556 69 95 3.0 5.0 0.00 0.03 0.03 86 1013.9
20260904212055 69 90 2.0 5.0 0.00 0.03 0.03 84 1013.9
20260904211556 70 89 3.0 5.0 0.00 0.03 0.03 82 1014.0
20260904211057 70 61 2.0 4.0 0.00 0.03 0.03 82 1014.0
20260904210556 70 78 2.0 0.0 0.00 0.03 0.03 82 1014.0
20260904205702 70 90 2.0 5.0 0.00 0.03 0.03 82 1013.9
20260904205202 70 111 2.0 5.0 0.00 0.03 0.03 81 1013.9
20260904204934 70 95 2.0 5.0 0.00 0.03 0.03 81 1013.9
20260904204203 70 138 1.0 5.0 0.00 0.03 0.03 83 1013.9
20260904203702 70 145 3.0 5.0 0.00 0.03 0.03 83 1014.0
20260904203202 70 104 3.0 6.0 0.00 0.03 0.03 83 1014.1
20260904202704 69 92 4.0 6.0 0.00 0.03 0.03 83 1014.0
20260904202202 69 89 2.0 6.0 0.00 0.03 0.03 83 1014.2
20260904201935 69 92 2.0 6.0 0.00 0.03 0.03 83 1014.1
20260904201600 70 179 3.0 6.0 0.00 0.03 0.03 85 1014.2
20260904200741 69 71 3.0 6.0 0.00 0.03 0.03 85 1014.1
20260904200228 69 90 3.0 6.0 0.00 0.03 0.03 85 1014.2
20260904195659 69 95 3.0 9.0 0.00 0.03 0.03 86 1014.1
20260904195525 69 110 2.0 11.0 0.00 0.03 0.03 90 1014.0
20260904195417 69 107 1.0 10.0 0.00 0.03 0.03 89 1014.1
20260904194158 68 110 4.0 12.0 0.00 0.03 0.03 91 1014.0
20260904193659 68 111 5.0 12.0 0.00 0.03 0.03 91 1014.0
20260904193157 68 89 6.0 12.0 0.00 0.03 0.03 92 1014.0
20260904192657 68 90 7.0 11.0 0.00 0.03 0.03 92 1014.0
20260904192155 68 102 6.0 11.0 0.00 0.03 0.03 92 1014.1
20260904191655 68 111 4.0 11.0 0.00 0.03 0.03 92 1014.2
20260904191156 68 103 5.0 11.0 0.00 0.03 0.03 92 1014.2
20260904190655 68 103 4.0 11.0 0.00 0.03 0.03 92 1014.2
20260904185635 68 103 5.0 10.0 0.00 0.03 0.03 92 1014.2
20260904185135 68 87 4.0 10.0 0.00 0.03 0.03 91 1014.2
20260904184636 68 118 4.0 10.0 0.00 0.03 0.03 91 1014.3
20260904184134 68 99 4.0 9.0 0.00 0.03 0.03 90 1014.3
20260904183637 68 113 5.0 9.0 0.00 0.03 0.03 90 1014.3
20260904183407 68 87 5.0 9.0 0.00 0.03 0.03 90 1014.3
20260904182635 68 92 3.0 6.0 0.00 0.03 0.03 90 1014.5
20260904182134 68 126 4.0 7.0 0.00 0.03 0.03 90 1014.5
20260904181634 67 95 2.0 7.0 0.00 0.03 0.03 90 1014.6
20260904181132 68 82 3.0 7.0 0.00 0.03 0.03 90 1014.7
20260904180906 68 145 3.0 7.0 0.00 0.03 0.03 90 1014.4
20260904175504 68 68 3.0 6.0 0.00 0.03 0.03 89 1014.5
20260904175007 68 99 3.0 7.0 0.00 0.03 0.03 89 1014.6
20260904174503 68 89 5.0 7.0 0.00 0.03 0.03 88 1014.6
20260904174005 69 110 3.0 7.0 0.00 0.03 0.03 88 1014.5
20260904173004 70 97 4.0 7.0 0.00 0.03 0.03 87 1014.4
20260904172502 70 121 3.0 10.0 0.00 0.03 0.03 88 1014.2
20260904172006 69 93 3.0 10.0 0.00 0.03 0.03 89 1014.1
20260904171503 68 85 5.0 10.0 0.00 0.03 0.03 89 1014.0
20260904171003 68 113 4.0 10.0 0.00 0.03 0.03 92 1014.1
20260904170502 67 69 5.0 10.0 0.00 0.03 0.03 92 1014.2
20260904170003 67 123 4.0 9.0 0.00 0.03 0.03 92 1014.3
20260904165503 67 103 4.0 9.0 0.00 0.03 0.03 92 1014.5
20260904165235 67 128 4.0 7.0 0.00 0.03 0.03 92 1014.5
20260904164507 67 86 3.0 6.0 0.00 0.03 0.03 92 1014.6
20260904164003 67 87 4.0 6.0 0.00 0.03 0.03 92 1014.7
20260904163504 67 63 2.0 6.0 0.00 0.03 0.03 92 1014.7
20260904163231 67 66 3.0 6.0 0.00 0.03 0.03 92 1014.7
20260904162502 67 61 3.0 5.0 0.00 0.03 0.03 93 1014.6
20260904162003 67 62 3.0 5.0 0.00 0.03 0.03 92 1014.7
20260904161503 67 90 3.0 5.0 0.00 0.03 0.03 92 1014.7
20260904161002 67 69 3.0 5.0 0.00 0.03 0.03 92 1014.8
20260904160502 67 79 3.0 5.0 0.00 0.03 0.03 92 1014.9
20260904160003 67 89 3.0 5.0 0.00 0.03 0.03 92 1014.8
20260904155502 67 66 3.0 5.0 0.00 0.03 0.03 92 1014.9
20260904155008 67 92 4.0 5.0 0.00 0.03 0.03 92 1015.1
20260904154502 67 72 4.0 7.0 0.00 0.03 0.03 92 1015.1
20260904154002 67 63 2.0 7.0 0.00 0.03 0.03 92 1015.1
20260904153501 67 48 4.0 7.0 0.00 0.03 0.03 90 1014.8
20260904153002 67 85 4.0 7.0 0.00 0.03 0.03 89 1015.2
20260904152733 68 65 2.0 4.0 0.00 0.03 0.03 89 1015.2
20260904152231 67 89 1.0 4.0 0.00 0.03 0.03 90 1015.1
20260904151502 67 148 1.0 4.0 0.00 0.03 0.03 90 1014.9
20260904151000 67 118 0.0 3.0 0.00 0.03 0.03 92 1014.9
20260904150729 67 166 1.0 2.0 0.00 0.03 0.03 92 1015.2
20260904150230 67 159 1.0 2.0 0.00 0.03 0.03 92 1015.2
20260904145500 67 257 0.0 2.0 0.00 0.03 0.03 93 1015.3
20260904145001 67 233 0.0 4.0 0.00 0.03 0.03 93 1015.2
20260904144500 66 259 1.0 4.0 0.00 0.03 0.03 94 1015.3
20260904144002 66 203 0.0 3.0 0.00 0.03 0.03 94 1015.3
20260904143601 66 204 2.0 4.0 0.00 0.03 0.03 95 1015.1
20260904143010 66 189 2.0 4.0 0.00 0.03 0.03 95 1015.1
20260904142502 66 224 2.0 4.0 0.00 0.03 0.03 96 1014.9
20260904141958 65 200 2.0 3.0 0.00 0.03 0.03 96 1014.9
20260904141515 65 204 1.0 2.0 0.00 0.03 0.03 96 1014.9
20260904140957 65 92 0.0 4.0 0.00 0.03 0.03 96 1014.8
20260904140458 65 164 1.0 4.0 0.00 0.03 0.03 96 1014.7
20260904135959 65 206 0.0 4.0 0.00 0.03 0.03 96 1014.5
20260904135454 65 186 1.0 4.0 0.00 0.03 0.03 97 1014.4
20260904135221 65 197 1.0 5.0 0.00 0.03 0.03 97 1014.6
20260904134455 64 154 3.0 5.0 0.00 0.03 0.03 97 1014.5
20260904134003 64 145 1.0 6.0 0.00 0.03 0.03 97 1014.2
20260904133455 64 151 2.0 6.0 0.00 0.03 0.03 97 1014.1
20260904133007 64 161 2.0 4.0 0.00 0.03 0.03 97 1014.1
20260904132454 64 157 2.0 4.0 0.00 0.03 0.03 97 1014.3
20260904131951 64 140 1.0 2.0 0.00 0.03 0.03 97 1014.3
20260904131714 64 92 0.0 1.0 0.00 0.03 0.03 97 1014.5
20260904130952 64 68 0.0 0.0 0.00 0.03 0.03 97 1014.5
20260904130451 64 63 0.0 3.0 0.00 0.03 0.03 97 1014.8
20260904125947 64 63 0.0 3.0 0.01 0.02 0.03 97 1014.6
20260904125447 64 66 2.0 3.0 0.01 0.02 0.03 97 1014.2
20260904124943 63 158 0.0 3.0 0.02 0.02 0.03 97 1014.1
20260904124446 63 178 1.0 3.0 0.03 0.02 0.03 97 1014.1
20260904123945 63 168 1.0 3.0 0.03 0.02 0.03 97 1014.1
20260904123443 63 178 0.0 2.0 0.03 0.02 0.03 97 1013.9
20260904122943 62 175 0.0 2.0 0.03 0.02 0.03 97 1014.0
20260904122442 62 210 1.0 2.0 0.03 0.02 0.03 97 1014.1
20260904122213 62 210 0.0 3.0 0.03 0.02 0.03 97 1014.1
20260904120942 61 188 2.0 4.0 0.03 0.02 0.03 96 1014.2
20260904120440 62 175 3.0 4.0 0.03 0.02 0.03 96 1014.4
20260904115942 62 212 0.0 3.0 0.02 0.00 0.02 96 1014.7
20260904115441 61 251 2.0 3.0 0.02 0.00 0.02 97 1014.8
20260904114941 61 264 2.0 4.0 0.01 0.00 0.00 97 1014.6
20260904114440 61 264 2.0 4.0 0.00 0.00 0.00 97 1014.7
20260904113940 61 285 2.0 4.0 0.00 0.00 0.00 97 1014.7
20260904113441 61 282 1.0 3.0 0.00 0.00 0.00 97 1014.6
20260904112941 60 310 1.0 2.0 0.00 0.00 0.00 97 1014.4
20260904112441 60 282 1.0 2.0 0.00 0.00 0.00 97 1014.2
20260904111941 60 303 0.0 2.0 0.00 0.00 0.00 97 1014.2
20260904111436 59 307 1.0 2.0 0.00 0.00 0.00 97 1014.2
20260904110936 59 302 1.0 2.0 0.00 0.00 0.00 97 1014.2
20260904105934 58 285 0.0 1.0 0.00 0.00 0.00 96 1014.1
20260904105434 58 286 0.0 1.0 0.00 0.00 0.00 96 1014.1
20260904104934 58 248 0.0 0.0 0.00 0.00 0.00 96 1013.8